Hourly Data Report for December 15, 2003

SHERBROOKE A
QUEBEC

45°26'00.000" N
71°41'00.000" W
241.40 m
7028124
71610
YSC

Download Data

Hourly Data (December 2003)
Hourly Data Report for December 15, 2003
TIME
LST
Temp Definition
°C
Dew Point Definition
°C
Rel Hum Definition
%
Precip. Amount Definition
mm

Wind Dir Definition
10's deg

Wind Spd Definition
km/h
Visibility Definition
km
Stn Press Definition
kPa
Hmdx Definition


Wind Chill Definition


Weather Definition


00:00 -8.0 -9.3 90   6 11 0.3 98.49   -13 Moderate Snow
01:00 -7.8 -9.1 90   7 7 0.3 98.41   -11 Snow
02:00 -7.7 -9.1 90   7 9 0.6 98.41   -12 Snow
03:00 -5.1 -6.4 91   9 11 0.6 98.26   -10 Snow
04:00 -4.7 -7.0 84   7 13 6.4 98.05   -10 Snow
05:00 -4.4 -7.4 80   5 15 15.0 97.94   -10 Snow
06:00 -5.7 -7.0 91   5 20 0.5 97.82   -12 Snow
07:00 -5.2 -6.6 90   4 13 0.3 97.73   -10 Snow
08:00 -5.1 -6.4 91   3 9 0.6 97.68   -9 Moderate Snow
09:00 -5.2 -6.7 89   5 17 0.8 97.59   -11 Moderate Snow
10:00 -5.1 -6.8 88   5 19 1.6 97.46   -12 Snow
11:00 -6.7 -8.4 88   2 15 1.6 97.37   -13 Snow
12:00 -6.0 -8.3 84   36 11 1.2 97.29   -11 Snow
13:00 -7.1 -9.5 83   33 13 3.2 97.29   -13 Snow
14:00 -6.9 -9.5 82   33 15 9.7 97.31   -13 Snow
15:00 -6.2 -8.9 81   35 15 4.0 97.39   -12 Snow
16:00 -5.8 -8.6 81   34 19 4.0 97.51   -12 Snow
17:00 -5.4 -8.5 79   32 19 3.2 97.64   -12 Snow
18:00 -5.8 -7.3 89   30 20 1.6 97.77   -13 Snow
19:00 -5.8 -7.4 88   29 20 6.4 97.88   -13 Snow
20:00 -5.5 -7.0 89   29 22 15.0 97.94   -13  
21:00 -5.5 -7.0 89   29 32 15.0 98.00   -14 Snow
22:00 -5.9 -7.7 87   29 33 15.0 98.08   -15 Snow
23:00 -6.0 -8.5 82   30 33 15.0 98.20   -15  

Notes on Data Quality.

Legend

  • E = Estimated
  • M = Missing
  • NA = Not Available*
  • [empty] = Indicates an unobserved value
Date modified: